When you browse on this site, cookies collect data to enhance your experience and personalize the content and advertising you see.
Visit our Privacy Policy to learn more. By continuing to use the site, you agree to this use of cookies and data.
  • In Germany
  • List of Countries
  • For 7 days
  • Water Temperature
  • Weather Map
  • Weather Widgets
  • user-avatar
    Login

    Hourly Weather Klagenfurt

    Today, 25 August, Sunday

    Time Temperature Precipitation Wind Pressure Humidity
    00:00 +16°C° 0.1 mm 1 mps 693 mmHg 91%
    01:00 +16°C° 0.1 mm 1 mps 693 mmHg 91%
    02:00 +15°C° 0 mm 1 mps 693 mmHg 92%
    03:00 +15°C° 0 mm 1 mps 693 mmHg 92%
    04:00 +15°C° 0 mm 1 mps 693 mmHg 93%
    05:00 +16°C° 0 mm 1 mps 693 mmHg 92%
    06:00 +16°C° 0 mm 1 mps 693 mmHg 91%
    07:00 +18°C° 0 mm 1 mps 693 mmHg 90%
    08:00 +20°C° 0.1 mm 1 mps 693 mmHg 82%
    09:00 +22°C° 0.1 mm 1 mps 694 mmHg 74%
    10:00 +24°C° 0.1 mm 1 mps 694 mmHg 66%
    11:00 +25°C° 0.5 mm 1 mps 694 mmHg 64%
    12:00 +26°C° 0.5 mm 1 mps 694 mmHg 62%
    13:00 +26°C° 0.5 mm 1 mps 694 mmHg 60%
    14:00 +26°C° 0.4 mm 1 mps 694 mmHg 59%
    15:00 +26°C° 0.4 mm 1 mps 694 mmHg 59%
    16:00 +26°C° 0.4 mm 1 mps 694 mmHg 58%
    17:00 +24°C° 0.3 mm 1 mps 693 mmHg 67%
    18:00 +22°C° 0.3 mm 1 mps 693 mmHg 75%
    19:00 +17°C° 0.3 mm 0 mps 692 mmHg 84%
    20:00 +19°C° 0.1 mm 1 mps 692 mmHg 84%
    21:00 +18°C° 0.1 mm 1 mps 693 mmHg 85%
    22:00 +18°C° 0.1 mm 1 mps 693 mmHg 86%
    23:00 +16°C° 0 mm 1 mps 693 mmHg 87%

    Tomorrow, 26 August, Monday

    Time Temperature Precipitation Wind Pressure Humidity
    00:00 +16°C° 0 mm 1 mps 693 mmHg 87%
    01:00 +16°C° 0 mm 1 mps 692 mmHg 88%
    02:00 +16°C° 0 mm 1 mps 692 mmHg 89%
    03:00 +15°C° 0 mm 1 mps 692 mmHg 89%
    04:00 +15°C° 0 mm 1 mps 692 mmHg 90%
    05:00 +16°C° 0 mm 1 mps 692 mmHg 89%
    06:00 +18°C° 0 mm 1 mps 692 mmHg 88%
    07:00 +18°C° 0 mm 1 mps 693 mmHg 87%
    08:00 +21°C° 0 mm 1 mps 693 mmHg 78%
    09:00 +23°C° 0 mm 1 mps 693 mmHg 70%
    10:00 +25°C° 0 mm 1 mps 694 mmHg 61%
    11:00 +26°C° 0.6 mm 1 mps 694 mmHg 61%
    12:00 +26°C° 0.6 mm 1 mps 694 mmHg 61%
    13:00 +27°C° 0.6 mm 1 mps 694 mmHg 61%
    14:00 +26°C° 0.9 mm 1 mps 693 mmHg 64%
    15:00 +26°C° 0.9 mm 1 mps 693 mmHg 66%
    16:00 +25°C° 0.9 mm 1 mps 692 mmHg 69%
    17:00 +23°C° 0.7 mm 1 mps 692 mmHg 75%
    18:00 +22°C° 0.7 mm 1 mps 692 mmHg 81%
    19:00 +20°C° 0.7 mm 1 mps 692 mmHg 88%
    20:00 +19°C° 0.3 mm 1 mps 692 mmHg 88%
    21:00 +19°C° 0.3 mm 1 mps 692 mmHg 89%
    22:00 +18°C° 0.3 mm 1 mps 692 mmHg 89%
    23:00 +18°C° 0.1 mm 1 mps 692 mmHg 90%

    Day after tomorrow, 27 August, Tuesday

    Time Temperature Precipitation Wind Pressure Humidity
    00:00 +16°C° 0.1 mm 1 mps 692 mmHg 90%
    01:00 +16°C° 0.1 mm 1 mps 692 mmHg 91%
    02:00 +16°C° 0 mm 1 mps 692 mmHg 91%
    03:00 +16°C° 0 mm 1 mps 692 mmHg 91%
    04:00 +15°C° 0 mm 1 mps 691 mmHg 91%
    05:00 +15°C° 0 mm 0 mps 692 mmHg 90%
    06:00 +16°C° 0 mm 0 mps 692 mmHg 88%
    07:00 +17°C° 0 mm 0 mps 692 mmHg 87%
    08:00 +19°C° 0 mm 0 mps 693 mmHg 78%
    09:00 +22°C° 0 mm 0 mps 693 mmHg 69%
    10:00 +24°C° 0 mm 0 mps 694 mmHg 61%
    11:00 +27°C° 0.1 mm 1 mps 694 mmHg 57%
    12:00 +28°C° 0.1 mm 1 mps 694 mmHg 54%
    13:00 +29°C° 0.1 mm 1 mps 694 mmHg 50%
    14:00 +28°C° 0.3 mm 1 mps 694 mmHg 53%
    15:00 +27°C° 0.3 mm 1 mps 693 mmHg 56%
    16:00 +27°C° 0.3 mm 1 mps 693 mmHg 59%
    17:00 +25°C° 0.3 mm 1 mps 693 mmHg 67%
    18:00 +23°C° 0.3 mm 1 mps 693 mmHg 75%
    19:00 +21°C° 0.3 mm 1 mps 692 mmHg 82%
    20:00 +20°C° 0.1 mm 1 mps 692 mmHg 83%
    21:00 +19°C° 0.1 mm 1 mps 693 mmHg 85%
    22:00 +19°C° 0.1 mm 1 mps 693 mmHg 86%
    23:00 +19°C° 0 mm 1 mps 692 mmHg 87%

    28 August, Wednesday

    Time Temperature Precipitation Wind Pressure Humidity
    00:00 +18°C° 0 mm 1 mps 692 mmHg 88%
    01:00 +16°C° 0 mm 0 mps 692 mmHg 89%
    02:00 +16°C° 0 mm 0 mps 692 mmHg 89%
    03:00 +16°C° 0 mm 0 mps 692 mmHg 89%
    04:00 +15°C° 0 mm 0 mps 691 mmHg 90%
    05:00 +16°C° 0 mm 0 mps 692 mmHg 88%
    06:00 +17°C° 0 mm 0 mps 692 mmHg 86%
    07:00 +18°C° 0 mm 0 mps 692 mmHg 84%
    08:00 +20°C° 0.1 mm 0 mps 692 mmHg 77%
    09:00 +22°C° 0.1 mm 0 mps 693 mmHg 71%
    10:00 +26°C° 0.1 mm 1 mps 693 mmHg 64%
    11:00 +27°C° 0.4 mm 1 mps 693 mmHg 61%
    12:00 +27°C° 0.4 mm 1 mps 692 mmHg 58%
    13:00 +28°C° 0.4 mm 1 mps 692 mmHg 55%
    14:00 +28°C° 0.3 mm 1 mps 692 mmHg 56%
    15:00 +27°C° 0.3 mm 1 mps 692 mmHg 58%
    16:00 +27°C° 0.3 mm 1 mps 691 mmHg 59%
    17:00 +25°C° 0.3 mm 1 mps 691 mmHg 67%
    18:00 +23°C° 0.3 mm 1 mps 690 mmHg 74%
    19:00 +21°C° 0.3 mm 1 mps 690 mmHg 82%
    20:00 +20°C° 0.4 mm 1 mps 690 mmHg 84%
    21:00 +19°C° 0.4 mm 1 mps 690 mmHg 85%
    22:00 +19°C° 0.4 mm 1 mps 690 mmHg 87%
    23:00 +18°C° 0.1 mm 1 mps 690 mmHg 88%

    29 August, Thursday

    Time Temperature Precipitation Wind Pressure Humidity
    00:00 +18°C° 0.1 mm 1 mps 690 mmHg 88%
    01:00 +18°C° 0.1 mm 1 mps 690 mmHg 89%
    02:00 +18°C° 0 mm 1 mps 690 mmHg 89%
    03:00 +16°C° 0 mm 1 mps 690 mmHg 89%
    04:00 +16°C° 0 mm 1 mps 689 mmHg 89%
    05:00 +18°C° 0 mm 1 mps 690 mmHg 88%
    06:00 +18°C° 0 mm 1 mps 690 mmHg 87%
    07:00 +19°C° 0 mm 1 mps 690 mmHg 85%
    08:00 +20°C° 0 mm 0 mps 691 mmHg 77%
    09:00 +22°C° 0 mm 0 mps 691 mmHg 68%
    10:00 +24°C° 0 mm 0 mps 692 mmHg 60%
    11:00 +25°C° 0.1 mm 0 mps 692 mmHg 56%
    12:00 +28°C° 0.1 mm 1 mps 692 mmHg 53%
    13:00 +28°C° 0.1 mm 1 mps 692 mmHg 50%
    14:00 +28°C° 0.3 mm 1 mps 691 mmHg 53%
    15:00 +27°C° 0.3 mm 1 mps 691 mmHg 56%
    16:00 +27°C° 0.3 mm 1 mps 691 mmHg 59%
    17:00 +25°C° 0.2 mm 1 mps 691 mmHg 66%
    18:00 +23°C° 0.2 mm 1 mps 691 mmHg 73%
    19:00 +21°C° 0.2 mm 1 mps 690 mmHg 80%
    20:00 +20°C° 0.8 mm 1 mps 691 mmHg 83%
    21:00 +19°C° 0.8 mm 1 mps 691 mmHg 85%
    22:00 +18°C° 0.8 mm 1 mps 691 mmHg 88%
    23:00 +18°C° 0.4 mm 1 mps 691 mmHg 89%

    30 August, Friday

    Time Temperature Precipitation Wind Pressure Humidity
    00:00 +18°C° 0.4 mm 1 mps 691 mmHg 90%
    01:00 +16°C° 0.4 mm 1 mps 691 mmHg 92%
    02:00 +16°C° 0.1 mm 1 mps 691 mmHg 92%
    03:00 +16°C° 0.1 mm 1 mps 691 mmHg 92%
    04:00 +16°C° 0.1 mm 1 mps 691 mmHg 92%
    05:00 +16°C° 0.2 mm 1 mps 692 mmHg 92%
    06:00 +18°C° 0.2 mm 1 mps 692 mmHg 92%
    07:00 +18°C° 0.2 mm 1 mps 692 mmHg 91%
    08:00 +20°C° 0.1 mm 1 mps 693 mmHg 85%
    09:00 +22°C° 0.1 mm 1 mps 693 mmHg 78%
    10:00 +23°C° 0.1 mm 1 mps 694 mmHg 72%
    11:00 +24°C° 0.7 mm 1 mps 694 mmHg 68%
    12:00 +25°C° 0.7 mm 1 mps 694 mmHg 65%
    13:00 +26°C° 0.7 mm 1 mps 694 mmHg 61%
    14:00 +25°C° 0.4 mm 1 mps 693 mmHg 63%
    15:00 +25°C° 0.4 mm 1 mps 693 mmHg 64%
    16:00 +25°C° 0.4 mm 1 mps 693 mmHg 66%
    17:00 +23°C° 0.3 mm 1 mps 693 mmHg 71%
    18:00 +21°C° 0.3 mm 1 mps 692 mmHg 77%
    19:00 +19°C° 0.3 mm 1 mps 692 mmHg 83%
    20:00 +19°C° 0 mm 1 mps 692 mmHg 82%
    21:00 +18°C° 0 mm 1 mps 692 mmHg 82%
    22:00 +18°C° 0 mm 1 mps 693 mmHg 82%
    23:00 +18°C° 0 mm 1 mps 692 mmHg 83%
    Show more